Regional Weather Roundup
Issued by NWS

Home | Current Version | Previous Version | Graphics & Text | Print | Product List | Glossary On
Versions: 1 2 3 4 5 6 7 8 9 10 11 12 13 14 15 16 17 18 19 20 21 22 23 24 25 26 27 28 29 30 31 32 33 34 35 36 37 38 39 40 41 42 43 44 45 46 47 48 49 50
000
ASUS43 KDTX 230010
RWRMI
MICHIGAN HOURLY REGIONAL WEATHER ROUNDUP
NATIONAL WEATHER SERVICE DETROIT/PONTIAC MI
800 PM EDT FRI SEP 22 2017

NOTE: "FAIR" INDICATES FEW OR NO CLOUDS BELOW 12,000 FEET WITH NO
SIGNIFICANT WEATHER AND/OR OBSTRUCTION TO VISIBILITY.

MIZ047>049-052>055-059>063-066>070-074>076-081>083-230100-
SOUTHEAST LOWER MICHIGAN

CITY           SKY/WX    TMP DP  RH WIND       PRES   REMARKS
ADRIAN         CLOUDY    79  68  69 SE5       30.09F
6HR MIN TEMP:  79; 6HR MAX TEMP:  92;

ALMA           CLEAR     80  63  55 SW5       30.05F
ANN ARBOR      CLEAR     78  68  71 SE5       30.08F
BAD AXE        CLEAR     80  67  63 SE3       30.06F
CARO           CLEAR     81  68  65 SE3       30.04F
DETROIT CITY   CLEAR     79  67  66 SE5       30.08S
6HR MIN TEMP:  79; 6HR MAX TEMP:  87;

DETROIT        PTCLDY    79  65  62 SE5       30.09F
6HR MIN TEMP:  78; 6HR MAX TEMP:  89;

FLINT          CLEAR     84  66  54 S5        30.07S
6HR MIN TEMP:  82; 6HR MAX TEMP:  93;

GROSSE ILE     CLEAR     72  68  88 CALM      30.08S
6HR MIN TEMP:  71; 6HR MAX TEMP:  79;

HILLSDALE      PTCLDY    73  61  64 CALM      30.09F
HOWELL         CLEAR     82  67  60 S6        30.09S
6HR MIN TEMP:  82; 6HR MAX TEMP:  91;


CITY           SKY/WX    TMP DP  RH WIND       PRES   REMARKS
JACKSON        PTCLDY    77  66  68 SE3       30.08F
6HR MIN TEMP:  76; 6HR MAX TEMP:  92; 6HR PCP:  0.08;

LAMBERTVILLE   CLEAR     74  68  82 CALM      30.08S
6HR MIN TEMP:  74; 6HR MAX TEMP:  87;

LANSING        CLEAR     83  66  56 CALM      30.07S
6HR MIN TEMP:  83; 6HR MAX TEMP:  94;

LAPEER         FAIR      78  67  68 CALM      30.08S
6HR MIN TEMP:  78; 6HR MAX TEMP:  91;

MASON          PTCLDY    83  66  57 CALM      30.08S
MONROE         CLEAR     73  67  81 CALM      30.08S
6HR MIN TEMP:  73; 6HR MAX TEMP:  86;

MT. CLEMENS    PTCLDY    74  67  76 S6        30.06F
6HR MIN TEMP:  74; 6HR MAX TEMP:  85;

PONTIAC        PTCLDY    83  68  60 SE7       30.08S
6HR MIN TEMP:  83; 6HR MAX TEMP:  90;

PORT HOPE        N/A     78  67  68 S5        30.03F
6HR MIN TEMP:  75; 6HR MAX TEMP:  83;

PORT HURON     CLEAR     73  68  83 CALM      30.08F
TRI CITIES     CLEAR     85  68  56 S8        30.04F
6HR MIN TEMP:  85; 6HR MAX TEMP:  94;

MIDLAND        FAIR      79  69  73 CALM      30.03S
6HR MIN TEMP:  79; 6HR MAX TEMP:  94;

TROY           CLEAR     82  67  58 CALM      30.10S
SAGINAW HB     CLEAR     82  68  61 S7        30.04F
$$
MIZ043>046-050>051-056>058-064>065-071>073-077>080-230100-
SOUTHWEST LOWER MICHIGAN

CITY           SKY/WX    TMP DP  RH WIND       PRES   REMARKS
BATTLE CREEK   CLEAR     83  64  52 SE8       30.08S
6HR MIN TEMP:  83; 6HR MAX TEMP:  93;

BENTON HARBOR  CLEAR     77  68  73 CALM      30.05S
6HR MIN TEMP:  77; 6HR MAX TEMP:  91;

BIG RAPIDS     CLEAR     77  65  66 CALM      30.06S
6HR MIN TEMP:  77; 6HR MAX TEMP:  92;

COLDWATER      CLEAR     79  61  55 S3        30.08F
6HR MIN TEMP:  79; 6HR MAX TEMP:  92;

FREMONT        FAIR      80  64  57 CALM      30.05S
HOLLAND        CLEAR     78  65  63 CALM      30.06F
6HR MIN TEMP:  78; 6HR MAX TEMP:  93;

GRAND RAPIDS   PTCLDY    86  65  49 W7        30.06S
6HR MIN TEMP:  86; 6HR MAX TEMP:  95;

IONIA          FAIR      80  65  60 S3        30.05F
6HR MIN TEMP:  80; 6HR MAX TEMP:  94;

KALAMAZOO      CLEAR     84  64  50 CALM      30.06F
6HR MIN TEMP:  84; 6HR MAX TEMP:  93;

LUDINGTON      CLOUDY    75  67  76 CALM      30.05S
6HR MIN TEMP:  75; 6HR MAX TEMP:  87;

MARSHALL       CLEAR     78  61  57 CALM      30.08
6HR MIN TEMP:  78; 6HR MAX TEMP:  93;

MOUNT PLEASANT CLEAR     79  68  69 CALM      30.04R
MUSKEGON       PTCLDY    78  66  66 CALM      30.04F
6HR MIN TEMP:  78; 6HR MAX TEMP:  90;

SOUTH HAVEN    CLEAR     77  69  75 CALM      30.05S
$$
MIZ016>042-230100-
NORTHERN LOWER MICHIGAN

CITY           SKY/WX    TMP DP  RH WIND       PRES   REMARKS
ALPENA         CLOUDY    72  65  78 SE7       30.06S
6HR MIN TEMP:  72; 6HR MAX TEMP:  92; 6HR PCP:  0.05;

BEAVER ISLAND  CLOUDY    70  63  78 SE7       29.97F
6HR MIN TEMP:  69; 6HR MAX TEMP:  85;

BELLAIRE       CLOUDY    69  63  79 S3        30.02F
6HR MIN TEMP:  69; 6HR MAX TEMP:  92;

CADILLAC       PTCLDY    76  64  66 E6        30.09F
CHARLEVOIX     CLOUDY    72  61  69 SE8       30.02F
FRANKFORT      CLOUDY    74  68  82 SE5       30.02F
GAYLORD        CLOUDY    69  59  70 S5        30.06F
6HR MIN TEMP:  69; 6HR MAX TEMP:  90;

GRAYLING       CLOUDY    73  61  66 CALM      30.08F
6HR MIN TEMP:  73; 6HR MAX TEMP:  92;

HARBOR SPRINGS MOCLDY    71  61  70 CALM      29.99F
HOUGHTON LAKE  CLOUDY    71  64  78 NE9       30.10F
6HR MIN TEMP:  71; 6HR MAX TEMP:  92;

MANISTEE       CLEAR     75  68  78 E3        30.03F
OSCODA         MOCLDY    81  63  55 N16G25    30.07R
6HR MIN TEMP:  80; 6HR MAX TEMP:  89;

PELLSTON       CLOUDY    71  62  73 S9        29.97F
6HR MIN TEMP:  71; 6HR MAX TEMP:  92;

ROGERS CITY    PTCLDY    71  64  80 CALM      30.03F
TRAVERSE CITY  CLOUDY    75  63  66 S5        30.02F
6HR MIN TEMP:  75; 6HR MAX TEMP:  95;

$$
MIZ007>008-015-230100-
EASTERN UPPER MICHIGAN

CITY           SKY/WX    TMP DP  RH WIND       PRES   REMARKS
KINROSS        CLOUDY    67  65  93 SE8       29.96F
6HR MIN TEMP:  67; 6HR MAX TEMP:  86;

MACKINAC ISLAN CLOUDY    71  62  73 S3        29.97F
6HR MIN TEMP:  69; 6HR MAX TEMP:  84;

NEWBERRY       CLOUDY    65  64  97 SE3       29.97R
6HR MIN TEMP:  65; 6HR MAX TEMP:  81; 6HR PCP:  0.13;

S. S. MARIE    MOCLDY    68  66  93 SE6       29.94F
6HR MIN TEMP:  68; 6HR MAX TEMP:  87; 6HR PCP:  0.02;

MUNISING         N/A     68  67  96 S5        29.94S
6HR MIN TEMP:  67; 6HR MAX TEMP:  83; 6HR PCP:  0.61;

$$
MIZ004>006-011>014-085-230100-
CENTRAL UPPER MICHIGAN

CITY           SKY/WX    TMP DP  RH WIND       PRES   REMARKS
MANISTIQUE     PTCLDY    65  59  81 SW7       29.97S
6HR MIN TEMP:  65; 6HR MAX TEMP:  73; 6HR PCP:  0.17;

ESCANABA       PTCLDY    68  65  90 S5        29.97F
6HR MIN TEMP:  67; 6HR MAX TEMP:  78; 6HR PCP:  0.43;

MENOMINEE      CLEAR     71  64  78 S12       29.98F
6HR MIN TEMP:  71; 6HR MAX TEMP:  87;

SAWYER-GWINN   CLEAR     64  63  94 S8        29.97F
$$
MIZ001>003-009>011-084-230100-
WESTERN UPPER MICHIGAN

CITY           SKY/WX    TMP DP  RH WIND       PRES   REMARKS
IRON MOUNTAIN  PTCLDY    70  65  84 SE7       29.97S
6HR MIN TEMP:  65; 6HR MAX TEMP:  81; 6HR PCP:  0.47;

HOUGHTON       CLOUDY    65  62  90 E9        29.90F
6HR MIN TEMP:  65; 6HR MAX TEMP:  71; 6HR PCP:  0.05;

COPPER HARBOR    N/A     66  62  87 CALM      29.91F
6HR MIN TEMP:  64; 6HR MAX TEMP:  68;

IRONWOOD       CLEAR     77  69  76 S14G21    29.87F
6HR MIN TEMP:  65; 6HR MAX TEMP:  78;

$$

ABBREVIATIONS USED IN REMARKS
   TC - TEMPERATURE IN CELSIUS
  WCI - WIND CHILL INDEX
   HX - HEAT INDEX
  VSB - VISIBILITY





USA.gov is the U.S. government's official web portal to all federal, state and local government web resources and services.